[[{"header":{"parameterUnit":"m.s-1","parameterCategory":1,"la1":30.2991,"la2":30.254,"lo1":-89.0895,"lo2":-89.0444,"dy":0.0017,"dx":0.0017,"nx":28,"ny":28,"refTime":"2023-09-22T03:00:00:Z","depth":0,"parameterNumber":2,"parameterNumberName":"U-component_of_WINDS"},"data":[0,0,0,0,0,0,0,0,0,0,0,0,0,0,0,0,0,0,0,0,0,0,0,0,0,0,0,0,0,0,0,0,0,0,0,0,0,0,0,0,0,0,0,0,0,0,0,0,0,0,0,0,0,0,0,0,0,0,-3.1849,-3.185,0,-3.191,-3.1911,-3.1911,-3.1853,-3.1851,-3.1849,-3.1847,-3.1909,-3.1913,-3.1917,0,0,0,0,0,0,0,0,0,0,0,0,0,-3.1684,-3.1687,-3.1849,-3.185,-3.185,-3.191,-3.1911,-3.1912,-3.1854,-3.1851,-3.1848,-3.1846,-3.1908,-3.1913,-3.1917,0,0,0,0,0,0,0,0,0,0,0,0,0,-3.1751,-3.1688,-3.1849,-3.1829,-3.1828,-3.191,-3.1911,-3.1912,-3.1854,-3.1851,-3.1848,-3.1844,-3.1907,-3.1912,-3.1918,-3.2023,0,0,-3.1935,-3.1938,0,0,0,0,0,0,0,0,-3.1748,-3.1758,-3.1831,-3.183,-3.1829,-3.1871,-3.1876,-3.1949,-3.1855,-3.1844,-3.1847,-3.1843,-3.1899,-3.1905,-3.1924,-3.2026,-3.2028,-3.1936,-3.1939,-3.1942,-3.1943,0,0,0,0,0,0,0,-3.1743,-3.1755,-3.1873,-3.1832,-3.1831,-3.1817,-3.1823,-3.1889,-3.1891,-3.1845,-3.1841,-3.1849,-3.1898,-3.1919,-3.1926,-3.2029,-3.1936,-3.1941,-3.1944,-3.1947,-3.2222,-3.2225,0,0,0,0,0,0,-3.174,-3.1751,-3.1871,-3.1875,-3.1779,-3.1823,-3.183,-3.1861,-3.189,-3.1891,-3.1852,-3.1846,-3.1911,-3.1919,-3.1928,-3.2052,-3.1942,-3.1947,-3.1951,-3.2218,-3.2222,-3.2227,0,0,0,0,0,0,-3.1737,-3.1752,-3.1869,-3.1812,-3.1826,-3.183,-3.1865,-3.1864,-3.1885,-3.1895,-3.1895,-3.1873,-3.1909,-3.1919,-3.2,-3.2053,-3.195,-3.1955,-3.2213,-3.2219,-3.2224,-3.2302,0,0,0,0,0,0,-3.1733,-3.1751,-3.179,-3.1813,-3.1829,-3.1939,-3.1869,-3.1867,-3.1895,-3.1888,-3.1915,-3.1916,-3.1907,-3.1992,-3.2006,-3.206,-3.196,-3.2208,-3.2216,-3.2223,-3.2295,-3.231,-3.2323,0,0,0,0,0,-3.1727,-3.1809,-3.1792,-3.1807,-3.1878,-3.1942,-3.1951,-3.1939,-3.1899,-3.1939,-3.1946,-3.1915,-3.2046,-3.2,-3.2016,-3.2072,-3.2205,-3.2214,-3.2222,-3.2289,-3.2307,-3.2323,0,0,0,0,0,0,-3.1791,-3.1812,-3.1793,-3.1885,-3.1913,-3.1932,-3.1982,-3.1959,-3.1998,-3.199,-3.1974,-3.1981,-3.2066,-3.2077,-3.2026,-3.2176,-3.2119,-3.2131,-3.2164,-3.2182,-3.2196,-3.219,-3.1964,0,0,0,0,0,-3.1816,-3.1866,-3.1882,-3.1962,-3.1977,-3.1978,-3.2005,-3.1994,-3.2021,-3.2033,-3.2045,-3.2074,-3.2122,-3.2153,-3.2197,-3.2298,-3.2303,-3.2345,-3.2359,-3.237,-3.238,-3.2435,-3.2453,-3.2255,-3.2255,-3.2255,0,0,-3.1868,-3.1885,-3.1918,-3.1975,-3.1995,-3.2048,-3.1987,-3.2045,-3.2085,-3.2041,-3.2117,-3.2129,-3.216,-3.2251,-3.2291,-3.2263,-3.2437,-3.2381,-3.239,-3.2394,-3.2445,-3.2464,-3.2481,-3.2261,-3.226,-3.2259,0,0,-3.1988,-3.2007,-3.2076,-3.2098,-3.2129,-3.213,-3.2147,-3.2171,-3.2177,-3.2253,-3.2222,-3.227,-3.2352,-3.2376,-3.2398,-3.2533,-3.2505,-3.2548,-3.262,-3.2674,-3.2689,-3.2703,-3.275,-3.2767,-3.2558,-3.2559,-3.2559,0,-3.2048,-3.2126,-3.2114,-3.2175,-3.2201,-3.2166,-3.2236,-3.2258,-3.2303,-3.2322,-3.229,-3.2395,-3.2413,-3.2509,-3.2542,-3.2562,-3.2581,-3.2543,-3.2688,-3.2702,-3.2714,-3.2759,-3.2777,-3.2563,-3.2563,-3.2562,-3.2562,0,-3.2198,-3.2253,-3.2305,-3.2349,-3.2382,-3.2447,-3.2446,-3.2481,-3.2468,-3.2473,-3.2552,-3.2574,-3.2623,-3.2646,-3.2633,-3.2741,-3.2722,-3.269,-3.2632,-3.2738,-3.278,-3.2797,-3.257,-3.2569,-3.2567,-3.2566,0,0,-3.2356,-3.2395,-3.2414,-3.2435,-3.2469,-3.2511,-3.2576,-3.2624,-3.2654,-3.2688,-3.2742,-3.2815,-3.2785,-3.2811,-3.2802,-3.285,-3.2954,-3.2811,-3.2812,-3.2836,-3.3074,-3.3096,-3.3116,-3.2938,-3.2942,-3.2944,-3.3071,0,-3.2476,-3.2588,-3.258,-3.2686,-3.2737,-3.2707,-3.2763,-3.2791,-3.2798,-3.2843,-3.2851,-3.2903,-3.2861,-3.2876,-3.2922,-3.2932,-3.3002,-3.2923,-3.2988,-3.299,-3.2978,-3.3138,-3.3161,-3.328,-3.3087,-3.309,-3.3092,0,-3.263,-3.2669,-3.278,-3.2808,-3.2829,-3.288,-3.2924,-3.2968,-3.3,-3.3002,-3.3033,-3.3017,-3.3084,-3.3028,-3.3119,-3.3066,-3.3093,-3.3102,-3.3107,-3.311,-3.3045,-3.3144,-3.3317,-3.3334,-3.3118,-3.3116,-3.3114,0,-3.2733,-3.2814,-3.289,-3.2909,-3.2944,-3.298,-3.2997,-3.3026,-3.3056,-3.3096,-3.3115,-3.3163,-3.3188,-3.3226,-3.3224,-3.3183,-3.3317,-3.326,-3.332,-3.332,-3.3346,-3.3344,-3.3525,-3.3369,-3.3368,-3.3368,-3.3368,0,-3.2866,-3.2934,-3.2937,-3.2983,-3.306,-3.3053,-3.3129,-3.3142,-3.3168,-3.3217,-3.3196,-3.3243,-3.3238,-3.3287,-3.3286,-3.3362,-3.3374,-3.3378,-3.3376,-3.3378,-3.3377,-3.3393,-3.3384,-3.3373,-3.3372,-3.3371,-3.337,0,-3.2991,-3.2996,-3.3077,-3.3105,-3.3114,-3.3169,-3.3193,-3.3238,-3.3245,-3.3308,-3.3323,-3.3333,-3.3389,-3.3392,-3.3456,-3.3456,-3.3548,-3.3539,-3.3537,-3.3534,-3.3594,-3.3587,-3.3788,-3.3814,-3.3643,-3.3645,-3.3646,0,-3.3074,-3.3126,-3.3161,-3.3192,-3.3211,-3.3263,-3.3294,-3.329,-3.3324,-3.3366,-3.3406,-3.346,-3.3502,-3.3593,-3.3607,-3.3657,-3.3647,-3.3714,-3.3654,-3.3655,-3.3646,-3.3642,-3.3647,-3.3725,-3.3727,-3.3728,-3.373,0,-3.3222,-3.3222,-3.3267,-3.3315,-3.3353,-3.339,-3.3424,-3.3452,-3.3453,-3.3492,-3.3549,-3.3582,-3.3649,-3.3703,-3.3752,-3.3769,-3.375,-3.3749,-3.3765,-3.3766,-3.3762,-3.3764,-3.3566,-3.3743,-3.3742,-3.3741,-3.374,-3.374,-3.3327,-3.3372,-3.3404,-3.3456,-3.3482,-3.3515,-3.3559,-3.3573,-3.362,-3.3673,-3.367,-3.3733,-3.3766,-3.383,-3.3853,-3.3903,-3.3879,-3.3903,-3.3909,-3.3914,-3.392,-3.3757,-3.3912,-3.3911,-3.3911,-3.3911,-3.391,0,-3.3471,-3.3491,-3.3539,-3.3589,-3.363,-3.361,-3.3648,-3.3684,-3.374,-3.3773,-3.3816,-3.3883,-3.3936,-3.3956,-3.4008,-3.4044,-3.4037,-3.4058,-3.4053,-3.4058,-3.3938,-3.3918,-3.4063,-3.4063,-3.4063,-3.4063,-3.4063,-3.4063,-3.3551,-3.3626,-3.3631,-3.372,-3.374,-3.3801,-3.3825,-3.3856,-3.3882,-3.3957,-3.4002,-3.4015,-3.4043,-3.4097,-3.4146,-3.415,-3.417,-3.4194,-3.4195,-3.4082,-3.4066,-3.4051,-3.4032,-3.4199,-3.4199,-3.4311,-3.4312,-3.4312]},{"header":{"parameterUnit":"m.s-1","parameterCategory":1,"la1":30.2991,"la2":30.254,"lo1":-89.0895,"lo2":-89.0444,"dy":0.0017,"dx":0.0017,"nx":28,"ny":28,"refTime":"2023-09-22T03:00:00:Z","depth":0,"parameterNumber":3,"parameterNumberName":"V-component_of_WINDS"},"data":[0,0,0,0,0,0,0,0,0,0,0,0,0,0,0,0,0,0,0,0,0,0,0,0,0,0,0,0,0,0,0,0,0,0,0,0,0,0,0,0,0,0,0,0,0,0,0,0,0,0,0,0,0,0,0,0,0,0,1.9559,1.956,0,1.9619,1.962,1.962,1.9668,1.9668,1.9669,1.9669,1.9727,1.9728,1.9729,0,0,0,0,0,0,0,0,0,0,0,0,0,1.9482,1.9484,1.9559,1.956,1.9561,1.9619,1.962,1.9621,1.9668,1.9668,1.9669,1.9669,1.9726,1.9727,1.9729,0,0,0,0,0,0,0,0,0,0,0,0,0,1.9526,1.9484,1.9559,1.9591,1.9595,1.9619,1.962,1.9621,1.9668,1.9668,1.9669,1.967,1.9726,1.9727,1.9729,1.9724,0,0,1.9734,1.9735,0,0,0,0,0,0,0,0,1.9524,1.9529,1.9586,1.9589,1.9593,1.9637,1.9614,1.9655,1.9667,1.964,1.9669,1.967,1.9696,1.97,1.9709,1.9727,1.973,1.9734,1.9735,1.9736,1.9736,0,0,0,0,0,0,0,1.9521,1.9527,1.9583,1.9587,1.9591,1.9602,1.9609,1.9622,1.9663,1.9642,1.9646,1.9652,1.9698,1.9708,1.9711,1.973,1.9734,1.9735,1.9736,1.9737,1.9747,1.9747,0,0,0,0,0,0,1.9513,1.9524,1.9581,1.9585,1.956,1.9602,1.961,1.9622,1.9663,1.967,1.9652,1.9654,1.9705,1.9709,1.9713,1.9711,1.9736,1.9737,1.9738,1.9748,1.9747,1.9746,0,0,0,0,0,0,1.9511,1.9518,1.9578,1.9555,1.9564,1.9603,1.9616,1.9623,1.9633,1.967,1.9677,1.9655,1.9705,1.9711,1.9722,1.9713,1.9738,1.9739,1.9749,1.9748,1.9747,1.9705,0,0,0,0,0,0,1.9509,1.9517,1.9516,1.9555,1.9565,1.9586,1.9615,1.9623,1.9636,1.964,1.9675,1.9681,1.9706,1.9719,1.9723,1.9716,1.9741,1.975,1.9748,1.9747,1.9708,1.9703,1.9699,0,0,0,0,0,1.9506,1.9501,1.9516,1.9522,1.9565,1.9586,1.9592,1.9622,1.9635,1.9634,1.9658,1.968,1.9714,1.972,1.9725,1.9718,1.975,1.9749,1.9747,1.9709,1.9704,1.9699,0,0,0,0,0,0,1.9459,1.9507,1.9524,1.9532,1.9555,1.9594,1.9594,1.9615,1.9634,1.9636,1.9672,1.968,1.9686,1.9703,1.9709,1.9716,1.9735,1.9734,1.9704,1.9699,1.9695,1.969,1.9742,0,0,0,0,0,1.945,1.9464,1.9505,1.9508,1.9518,1.9554,1.9564,1.9586,1.961,1.962,1.9645,1.9667,1.9683,1.9692,1.9708,1.9711,1.9718,1.9708,1.9704,1.97,1.9699,1.9701,1.9697,1.9741,1.9741,1.9741,0,0,1.943,1.9458,1.9465,1.9499,1.9519,1.9532,1.9562,1.9574,1.9583,1.9621,1.9633,1.9652,1.9679,1.9685,1.9689,1.97,1.9689,1.9699,1.9695,1.9696,1.9699,1.9695,1.9691,1.974,1.974,1.9741,0,0,1.9402,1.9425,1.943,1.945,1.9481,1.9505,1.9506,1.9543,1.9557,1.957,1.9599,1.961,1.9636,1.9654,1.9667,1.9646,1.9666,1.965,1.9627,1.9629,1.9625,1.9622,1.9614,1.9611,1.9649,1.9648,1.9648,0,1.9374,1.9395,1.9429,1.944,1.9454,1.9491,1.9496,1.9513,1.9547,1.9555,1.9567,1.9601,1.9621,1.9632,1.9627,1.9636,1.9638,1.9646,1.9623,1.9621,1.9618,1.9611,1.9608,1.9646,1.9647,1.9647,1.9647,0,1.9359,1.9373,1.9373,1.9407,1.9421,1.9428,1.9463,1.9473,1.9493,1.9515,1.9527,1.9554,1.9576,1.9581,1.96,1.9594,1.96,1.9617,1.9636,1.9611,1.9605,1.9603,1.9643,1.9644,1.9645,1.9645,0,0,1.9301,1.9355,1.9354,1.937,1.9407,1.9418,1.9427,1.945,1.9458,1.948,1.9488,1.951,1.9526,1.954,1.9562,1.9564,1.9545,1.9581,1.9582,1.9572,1.9539,1.9526,1.9522,1.9559,1.9558,1.9558,1.9537,0,1.9278,1.9298,1.9329,1.9338,1.9351,1.9387,1.9394,1.9417,1.9438,1.9452,1.9475,1.949,1.951,1.9519,1.9523,1.9546,1.9538,1.9548,1.9565,1.9565,1.9557,1.9519,1.9505,1.9483,1.9535,1.9534,1.9534,0,1.9254,1.9275,1.9286,1.9322,1.9329,1.9336,1.936,1.9373,1.9399,1.9414,1.9431,1.9455,1.9465,1.9484,1.9498,1.9504,1.9513,1.9526,1.9526,1.9528,1.9548,1.9519,1.9477,1.9473,1.9531,1.9531,1.9531,0,1.921,1.9242,1.9253,1.9265,1.9308,1.9311,1.9329,1.9357,1.9369,1.9389,1.9397,1.9418,1.9429,1.9445,1.9474,1.9485,1.9484,1.9506,1.9497,1.9496,1.9494,1.9494,1.9452,1.9501,1.9501,1.9501,1.9501,0,1.9181,1.9186,1.9234,1.924,1.9246,1.9282,1.9287,1.9308,1.9332,1.9342,1.9373,1.9382,1.942,1.9433,1.9456,1.9464,1.9469,1.9481,1.9486,1.9477,1.9476,1.9483,1.9485,1.95,1.95,1.9501,1.9501,0,1.9133,1.9166,1.9179,1.9219,1.9229,1.9232,1.9266,1.9272,1.9296,1.9308,1.9313,1.9349,1.9366,1.9397,1.9422,1.9437,1.944,1.9451,1.9432,1.9435,1.9424,1.9425,1.9385,1.9382,1.9433,1.9433,1.9432,0,1.9112,1.9117,1.9157,1.9167,1.9184,1.9199,1.9212,1.9247,1.9259,1.929,1.9293,1.9312,1.933,1.9355,1.9383,1.9402,1.9413,1.9398,1.9416,1.9407,1.9412,1.9411,1.9411,1.9393,1.9392,1.9392,1.9391,0,1.907,1.9086,1.9104,1.9128,1.9143,1.9163,1.9184,1.919,1.923,1.9241,1.926,1.9273,1.93,1.9318,1.9342,1.9359,1.9381,1.9386,1.9385,1.9375,1.9364,1.9369,1.942,1.9386,1.9387,1.9387,1.9387,1.9388,1.9035,1.9041,1.9071,1.909,1.911,1.9129,1.9138,1.9163,1.9179,1.9204,1.9224,1.924,1.9266,1.93,1.9316,1.9329,1.934,1.9338,1.9337,1.9336,1.9333,1.9362,1.9333,1.9334,1.9334,1.9334,1.9334,0,1.8995,1.9016,1.9033,1.9063,1.9077,1.9099,1.9124,1.9134,1.9149,1.9172,1.9189,1.921,1.9228,1.9258,1.9278,1.9283,1.9294,1.9287,1.9287,1.929,1.9322,1.9321,1.9278,1.9278,1.9278,1.9278,1.9278,1.9278,1.8976,1.8987,1.9006,1.9027,1.9048,1.9066,1.9078,1.9096,1.9115,1.9137,1.9153,1.9173,1.9198,1.9221,1.9238,1.9247,1.9252,1.9242,1.9253,1.9283,1.9288,1.9293,1.9292,1.9243,1.9243,1.922,1.922,1.922]}]]